Weather observations for the past three days for
Faribault, Faribault Municipal Airport
Imperial (Metric)
Date Time (cdt) Wind (mph) Vis. (mi.) Weather Sky Cond. Temperature (ºF) Relative Humidity Wind Chill (°F) Heat Index (°F) Pressure Precipitation (in)
Air Dwpt 6 hour altimeter (in) sea level (mb) 1 hr 3 hr 6 hr
Max. Min.
21 22:55 Calm 7.00 Fair CLR 64.4 62.6 94% 30.12 0.0
21 22:35 Calm 2.00 Fog/Mist CLR 64.4 64.4 100% 30.13 0.0
21 22:15 Calm 3.00 Fog/Mist CLR 66.2 64.4 94% 30.12 0.0
21 21:55 Calm 5.00 Fog/Mist CLR 66.2 64.4 94% 30.12 0.0
21 21:35 Calm 7.00 Fair CLR 66.2 66.2 100% 30.13 0.0
21 21:15 Calm 10.00 Fair CLR 66.2 66.2 100% 30.13 0.0
21 20:55 Calm 5.00 Fog/Mist CLR 69.8 66.2 88% 30.12 0.0
21 20:35 Calm 10.00 Fair CLR 69.8 68 94% 30.12 0.0
21 20:15 Calm 10.00 Fair CLR 71.6 68 88% 30.12 0.0
21 19:55 Calm 10.00 Fair CLR 71.6 68 88% 30.12 0.0
21 19:35 Calm 10.00 Fair CLR 73.4 66.2 78% 30.11 0.0
21 19:15 Calm 10.00 Fair CLR 73.4 66.2 78% 30.11 0.0
21 18:55 Calm 10.00 Fair CLR 73.4 64.4 74% 30.11 0.0
21 18:35 Calm 10.00 Fair CLR 73.4 66.2 78% 30.11 0.0
21 18:15 Calm 10.00 Fair CLR 73.4 66.2 78% 30.11 0.0
21 17:55 Calm 10.00 Fair CLR 73.4 64.4 74% 30.11 0.0
21 17:35 Calm 10.00 Fair CLR 73.4 64.4 74% 30.12 0.0
21 17:15 Calm 10.00 Fair CLR 73.4 64.4 74% 30.12 0.0
21 16:55 Calm 10.00 Fair CLR 71.6 64.4 78% 30.13 0.0
21 16:35 Calm 10.00 Fair CLR 73.4 64.4 74% 30.13 0.0
21 16:15 Calm 10.00 Fair CLR 71.6 66.2 83% 30.14 0.0
21 15:55 Calm 10.00 Fair CLR 71.6 66.2 83% 30.14 0.0
21 15:35 S 3 10.00 Fair CLR 71.6 66.2 83% 30.15 0.0
21 15:15 Calm 10.00 Fair CLR 71.6 66.2 83% 30.15 0.0
21 14:55 SW 3 10.00 Fair CLR 69.8 66.2 88% 30.15 0.0
21 14:35 SE 3 10.00 Fair CLR 69.8 66.2 88% 30.16 0.0
21 14:15 SW 3 10.00 Fair CLR 69.8 66.2 88% 30.15 0.0
21 13:55 W 3 10.00 Fair CLR 68 66.2 94% 30.16 0.0
21 13:35 Calm 10.00 Light Rain SCT020 66.2 66.2 100% 30.15 0.0
21 13:15 Calm 10.00 Thunderstorm Light Rain SCT015 BKN020 66.2 66.2 100% 30.15 0.0
21 12:55 Calm 3.00 Thunderstorm Rain in Vicinity SCT015 BKN022 OVC040 66.2 66.2 100% 30.18 0.0
21 12:35 NE 3 7.00 Rain SCT021 BKN030 OVC048 66.2 64.4 94% 30.19 0.0 0.01
21 12:15 N 5 5.00 Rain SCT008 BKN029 OVC065 66.2 64.4 94% 30.21 0.0
21 11:55 N 5 10.00 Rain SCT012 BKN034 OVC080 69.8 64.4 83% 30.21 0.0
21 11:35 NE 9 10.00 Thunderstorm in Vicinity BKN012 BKN018 69.8 66.2 88% 30.21 0.0
21 11:15 NE 7 10.00 Mostly Cloudy SCT010 BKN014 BKN080 71.6 66.2 83% 30.2 0.0
21 10:55 NE 6 10.00 Thunderstorm in Vicinity SCT012 OVC080 71.6 66.2 83% 30.18 0.0
21 10:35 Calm 10.00 Overcast OVC080 71.6 66.2 83% 30.18 0.0
21 10:15 Calm 10.00 Mostly Cloudy BKN080 71.6 66.2 83% 30.18 0.0
21 09:55 Calm 10.00 Partly Cloudy SCT080 69.8 66.2 88% 30.16 0.0
21 09:35 Calm 10.00 Partly Cloudy SCT100 69.8 66.2 88% 30.16 0.0
21 09:15 Calm 10.00 Partly Cloudy SCT100 69.8 66.2 88% 30.16 0.0
21 08:55 Calm 7.00 Partly Cloudy SCT100 68 64.4 88% 30.16 0.0
21 08:35 Calm 7.00 Fair CLR 66.2 64.4 94% 30.17 0.0
21 08:15 S 3 7.00 Partly Cloudy SCT110 66.2 64.4 94% 30.16 0.0
21 07:55 S 3 7.00 Partly Cloudy SCT110 66.2 64.4 94% 30.16 0.0
21 07:35 Calm 5.00 Fog/Mist SCT110 66.2 64.4 94% 30.15 0.0
21 07:15 Calm 5.00 Fog/Mist BKN110 66.2 64.4 94% 30.15 0.0
21 06:55 SE 3 5.00 Fog/Mist SCT110 64.4 62.6 94% 30.14 0.0
21 06:35 Calm 5.00 Fog/Mist SCT110 64.4 64.4 100% 30.15 0.0
21 06:15 Calm 5.00 Fog/Mist SCT110 64.4 64.4 100% 30.14 0.0
21 05:55 Calm 7.00 Fair CLR 64.4 62.6 94% 30.14 0.0
21 05:35 Calm 7.00 Partly Cloudy SCT120 64.4 62.6 94% 30.14 0.0
21 05:15 Calm 10.00 Mostly Cloudy BKN110 64.4 62.6 94% 30.14 0.0
21 04:55 Calm 10.00 Partly Cloudy SCT110 64.4 62.6 94% 30.14 0.0
21 04:35 Calm 10.00 Fair CLR 64.4 62.6 94% 30.14 0.0
21 04:15 Calm 10.00 Fair CLR 64.4 62.6 94% 30.14 0.0
21 03:55 Calm 7.00 Fair CLR 62.6 62.6 100% 30.14 0.0
21 03:35 Calm 10.00 Fair CLR 64.4 62.6 94% 30.14 0.0
21 03:15 Calm 10.00 Fair CLR 64.4 62.6 94% 30.14 0.0
21 02:55 Calm 10.00 Fair CLR 64.4 62.6 94% 30.14 0.0
21 02:35 Calm 10.00 Fair CLR 64.4 62.6 94% 30.14 0.0
21 02:15 Calm 10.00 Fair CLR 66.2 64.4 94% 30.14 0.0
21 01:55 S 3 10.00 Fair CLR 66.2 64.4 94% 30.14 0.0
21 01:35 Calm 10.00 Fair CLR 66.2 64.4 94% 30.14 0.0
21 01:15 Calm 10.00 Fair CLR 66.2 64.4 94% 30.14 0.0
21 00:55 Calm 10.00 Fair CLR 66.2 64.4 94% 30.14 0.0
21 00:35 Calm 10.00 Fair CLR 66.2 64.4 94% 30.13 0.0
21 00:15 S 3 10.00 Fair CLR 68 64.4 88% 30.13 0.0
20 23:55 S 5 10.00 Fair CLR 69.8 64.4 83% 30.14 0.0
20 23:35 SE 6 10.00 Fair CLR 69.8 64.4 83% 30.14 0.0
20 22:55 S 3 10.00 Fair CLR 69.8 66.2 88% 30.14 0.0
20 22:35 S 3 10.00 Fair CLR 69.8 66.2 88% 30.14 0.0
20 22:15 Calm 10.00 Fair CLR 71.6 66.2 83% 30.14 0.0
20 21:55 Calm 10.00 Fair CLR 71.6 66.2 83% 30.14 0.0
20 21:35 S 3 10.00 Fair CLR 71.6 66.2 83% 30.14 0.0
20 21:15 SE 3 7.00 Fair CLR 73.4 66.2 78% 30.13 0.0
20 20:55 S 3 10.00 Fair CLR 73.4 66.2 78% 30.12 0.0
20 20:35 Calm 10.00 Fair CLR 75.2 66.2 74% 77 30.12 0.0
20 20:15 S 5 10.00 Fair CLR 75.2 64.4 69% 77 30.12 0.0
20 19:55 S 3 10.00 Fair CLR 77 64.4 65% 79 30.11 0.0
20 19:35 SE 5 10.00 Fair CLR 78.8 64.4 61% 81 30.11 0.0
20 19:15 S 5 10.00 Fair CLR 78.8 64.4 61% 81 30.1 0.0
20 18:55 S 5 10.00 Fair CLR 78.8 62.6 58% 80 30.1 0.0
20 18:35 S 3 10.00 Fair CLR 78.8 64.4 61% 81 30.1 0.0
20 18:15 SE 3 10.00 Partly Cloudy SCT042 80.6 64.4 58% 82 30.1 0.0
20 17:55 SE 6 10.00 Partly Cloudy SCT040 80.6 62.6 54% 82 30.1 0.0
20 17:35 SE 5 10.00 Mostly Cloudy BKN040 80.6 62.6 54% 82 30.1 0.0
20 17:15 Calm 10.00 Partly Cloudy SCT039 80.6 62.6 54% 82 30.1 0.0
20 16:55 E 3 10.00 Partly Cloudy SCT039 80.6 62.6 54% 82 30.1 0.0
20 16:35 S 3 10.00 Partly Cloudy SCT039 80.6 62.6 54% 82 30.1 0.0
20 16:15 S 5 10.00 Fair CLR 80.6 62.6 54% 82 30.11 0.0
20 15:55 SE 5 10.00 Partly Cloudy SCT036 80.6 62.6 54% 82 30.11 0.0
20 15:35 SE 5 10.00 Fair CLR 80.6 62.6 54% 82 30.12 0.0
20 15:15 S 7 10.00 Fair CLR 80.6 64.4 58% 82 30.12 0.0
20 14:55 S 3 10.00 Fair CLR 80.6 64.4 58% 82 30.13 0.0
20 14:35 S 7 10.00 Partly Cloudy SCT030 SCT035 80.6 64.4 58% 82 30.13 0.0
20 14:15 SE 3 10.00 Mostly Cloudy SCT028 BKN036 BKN055 77 64.4 65% 79 30.13 0.0
20 13:55 SW 5 10.00 Mostly Cloudy SCT026 SCT036 BKN055 77 64.4 65% 79 30.13 0.0
20 13:35 S 5 10.00 Fair CLR 75.2 64.4 69% 77 30.13 0.0
20 13:15 SW 7 10.00 Fair CLR 77 64.4 65% 79 30.13 0.0
20 12:55 SW 6 10.00 Partly Cloudy SCT019 75.2 64.4 69% 77 30.14 0.0
20 12:35 S 3 10.00 Mostly Cloudy SCT017 BKN070 75.2 64.4 69% 77 30.14 0.0
20 12:15 S 5 10.00 Partly Cloudy SCT017 SCT070 73.4 64.4 74% 30.14 0.0
20 11:55 SE 5 10.00 Partly Cloudy SCT060 SCT095 73.4 64.4 74% 30.14 0.0
20 11:35 S 6 10.00 Mostly Cloudy BKN060 71.6 64.4 78% 30.14 0.0
20 11:15 S 6 10.00 Mostly Cloudy SCT050 BKN060 71.6 64.4 78% 30.14 0.0
20 10:55 S 5 10.00 Mostly Cloudy BKN050 71.6 64.4 78% 30.14 0.0
20 10:35 S 7 10.00 Partly Cloudy SCT050 SCT075 SCT090 71.6 64.4 78% 30.14 0.0
20 10:15 S 8 10.00 Partly Cloudy SCT075 SCT090 69.8 64.4 83% 30.14 0.0
20 09:55 SE 8 10.00 Mostly Cloudy BKN060 69.8 64.4 83% 30.13 0.0
20 09:35 S 7 10.00 Overcast BKN060 OVC070 68 62.6 83% 30.13 0.0
20 09:15 SE 5 10.00 Mostly Cloudy SCT060 BKN070 68 64.4 88% 30.13 0.0
20 08:55 S 5 10.00 Mostly Cloudy BKN055 BKN070 66.2 64.4 94% 30.13 0.0
20 08:35 S 3 10.00 Light Rain BKN050 OVC055 66.2 62.6 88% 30.13 0.0
20 08:15 SE 3 10.00 Overcast OVC048 66.2 62.6 88% 30.14 0.0
20 07:55 S 3 10.00 Light Drizzle BKN046 OVC050 66.2 62.6 88% 30.13 0.0
20 07:35 SE 6 7.00 Rain BKN049 OVC060 66.2 62.6 88% 30.13 0.0
20 07:15 S 3 10.00 Mostly Cloudy BKN060 68 62.6 83% 30.13 0.0
20 06:55 Calm 10.00 Overcast SCT043 OVC060 66.2 62.6 88% 30.12 0.0
20 06:35 Calm 10.00 Overcast SCT046 BKN060 OVC085 66.2 62.6 88% 30.12 0.0
20 06:15 Calm 10.00 Overcast SCT044 BKN060 OVC085 66.2 62.6 88% 30.11 0.0
20 05:55 Calm 10.00 Overcast SCT044 BKN060 OVC100 66.2 62.6 88% 30.11 0.0
20 05:35 Calm 10.00 Overcast SCT046 BKN060 OVC090 68 64.4 88% 30.11 0.0
20 05:15 Calm 10.00 Rain SCT041 SCT050 OVC060 68 64.4 88% 30.11 0.0
20 04:55 Calm 10.00 Overcast BKN060 OVC075 69.8 62.6 78% 30.1 0.0
20 04:35 SE 3 10.00 Overcast SCT039 BKN060 OVC080 69.8 62.6 78% 30.09 0.0
20 04:15 Calm 10.00 Overcast SCT039 BKN044 OVC080 69.8 62.6 78% 30.09 0.0
20 03:55 Calm 10.00 Overcast SCT042 BKN055 OVC080 69.8 62.6 78% 30.09 0.0
20 03:35 SE 3 10.00 Overcast SCT040 OVC055 69.8 62.6 78% 30.09 0.0
20 03:15 SE 5 10.00 Overcast SCT049 OVC055 69.8 62.6 78% 30.08 0.0
20 02:55 SE 5 10.00 Overcast SCT039 BKN049 OVC055 69.8 62.6 78% 30.08 0.0
20 02:35 S 3 10.00 Overcast SCT039 OVC100 69.8 62.6 78% 30.08 0.0
20 02:15 S 3 10.00 Overcast SCT075 OVC100 69.8 62.6 78% 30.08 0.0
20 01:55 Calm 10.00 Overcast BKN075 OVC100 69.8 62.6 78% 30.09 0.0
20 01:35 Calm 10.00 Overcast SCT050 OVC075 69.8 62.6 78% 30.09 0.0
20 01:15 S 3 10.00 Partly Cloudy SCT050 SCT075 69.8 62.6 78% 30.09 0.0
20 00:55 Calm 10.00 Fair CLR 69.8 62.6 78% 30.09 0.0
20 00:35 Calm 10.00 Partly Cloudy SCT060 69.8 62.6 78% 30.09 0.0
20 00:15 Calm 10.00 Overcast OVC060 71.6 62.6 73% 30.09 0.0
19 23:55 S 5 10.00 Overcast OVC060 71.6 62.6 73% 30.09 0.0
19 23:35 SE 3 10.00 Overcast OVC060 71.6 62.6 73% 30.09 0.0
19 23:15 SE 3 10.00 Overcast OVC060 71.6 62.6 73% 30.1 0.0
19 22:55 Calm 10.00 Overcast OVC060 73.4 62.6 69% 30.1 0.0
19 22:35 Calm 10.00 Overcast OVC060 73.4 62.6 69% 30.1 0.0
19 22:15 S 5 10.00 Overcast OVC060 73.4 62.6 69% 30.1 0.0
19 21:55 S 5 10.00 Overcast OVC060 73.4 60.8 65% 30.09 0.0
19 21:35 SE 3 10.00 Overcast OVC060 73.4 62.6 69% 30.09 0.0
19 21:15 Calm 10.00 Overcast OVC060 73.4 62.6 69% 30.08 0.0
19 20:55 Calm 10.00 Overcast OVC060 73.4 60.8 65% 30.08 0.0
19 20:35 Calm 10.00 Overcast OVC060 75.2 60.8 61% 77 30.08 0.0
19 20:15 S 3 10.00 Overcast OVC060 75.2 60.8 61% 77 30.07 0.0
19 19:55 S 5 10.00 Overcast OVC060 75.2 60.8 61% 77 30.08 0.0
19 19:35 S 5 10.00 Overcast OVC060 75.2 60.8 61% 77 30.08 0.0
19 19:15 S 3 10.00 Mostly Cloudy BKN070 75.2 60.8 61% 77 30.08 0.0
19 18:55 S 5 10.00 Mostly Cloudy BKN060 75.2 60.8 61% 77 30.08 0.0
19 18:35 S 3 10.00 Mostly Cloudy SCT060 BKN065 75.2 60.8 61% 77 30.08 0.0
19 18:15 S 5 10.00 Partly Cloudy SCT060 77 60.8 57% 79 30.08 0.0
19 17:55 S 5 10.00 Overcast OVC060 77 60.8 57% 79 30.09 0.0
19 17:35 S 3 10.00 Overcast OVC060 77 60.8 57% 79 30.09 0.0
19 17:15 S 5 10.00 Overcast OVC060 78.8 59 51% 80 30.1 0.0
19 16:55 S 7 10.00 Overcast SCT050 OVC070 78.8 59 51% 80 30.09 0.0
19 16:35 S 6 10.00 Mostly Cloudy SCT055 BKN070 78.8 60.8 54% 80 30.09 0.0
19 16:15 S 6 10.00 Mostly Cloudy SCT055 BKN070 78.8 59 51% 80 30.09 0.0
19 15:55 S 7 10.00 Mostly Cloudy SCT060 BKN070 78.8 59 51% 80 30.09 0.0
19 15:35 SE 8 10.00 Mostly Cloudy SCT060 BKN080 78.8 59 51% 80 30.09 0.0
19 15:15 SE 9 10.00 Partly Cloudy SCT080 78.8 59 51% 80 30.1 0.0
19 14:55 S 7 10.00 Partly Cloudy SCT050 SCT070 80.6 57.2 45% 81 30.1 0.0
19 14:35 S 6 10.00 Partly Cloudy SCT050 78.8 57.2 48% 80 30.11 0.0
19 14:15 S 7 10.00 Fair CLR 80.6 57.2 45% 81 30.11 0.0
19 13:55 S 8 10.00 Fair CLR 78.8 57.2 48% 80 30.12 0.0
19 13:35 S 7 10.00 Fair CLR 78.8 57.2 48% 80 30.12 0.0
19 13:15 S 7 10.00 Fair CLR 78.8 57.2 48% 80 30.13 0.0
19 12:55 S 8 10.00 Fair CLR 78.8 55.4 45% 79 30.13 0.0
19 12:35 S 7 10.00 Fair CLR 77 57.2 51% 79 30.14 0.0
19 12:15 S 7 10.00 Fair CLR 77 57.2 51% 79 30.14 0.0
19 11:55 S 8 10.00 Fair CLR 77 57.2 51% 79 30.15 0.0
19 11:35 S 8 10.00 Fair CLR 75.2 57.2 54% 78 30.14 0.0
19 11:15 SE 8 10.00 Fair CLR 75.2 57.2 54% 78 30.15 0.0
19 10:55 S 9 10.00 Fair CLR 75.2 57.2 54% 78 30.15 0.0
19 10:35 S 8 10.00 Fair CLR 73.4 57.2 57% 30.16 0.0
19 10:15 S 10 10.00 Fair CLR 73.4 57.2 57% 30.16 0.0
19 09:55 S 7 10.00 Fair CLR 71.6 57.2 61% 30.16 0.0
19 09:35 SE 8 10.00 Fair CLR 71.6 57.2 61% 30.16 0.0
19 09:15 S 5 10.00 Fair CLR 69.8 59 69% 30.17 0.0
19 08:55 S 8 10.00 Fair CLR 68 57.2 69% 30.17 0.0
19 08:35 S 6 10.00 Fair CLR 66.2 57.2 73% 30.18 0.0
19 08:15 S 3 10.00 Fair CLR 66.2 57.2 73% 30.17 0.0
19 07:55 SE 3 10.00 Partly Cloudy SCT065 64.4 57.2 78% 30.18 0.0
19 07:35 S 3 10.00 Partly Cloudy SCT065 62.6 55.4 77% 30.18 0.0
19 07:15 SE 5 10.00 Mostly Cloudy BKN065 62.6 57.2 83% 30.17 0.0
19 06:55 S 3 10.00 Mostly Cloudy BKN065 60.8 55.4 83% 30.17 0.0
19 06:35 S 3 10.00 Mostly Cloudy BKN065 60.8 55.4 83% 30.17 0.0
19 06:15 SE 3 10.00 Partly Cloudy SCT065 60.8 55.4 83% 30.17 0.0
19 05:55 SE 3 10.00 Mostly Cloudy BKN065 60.8 55.4 83% 30.17 0.0
19 05:35 Calm 10.00 Mostly Cloudy BKN065 60.8 55.4 83% 30.17 0.0
19 05:15 Calm 10.00 Mostly Cloudy BKN065 60.8 55.4 83% 30.17 0.0
19 04:55 Calm 10.00 Mostly Cloudy BKN065 60.8 55.4 83% 30.17 0.0
19 04:35 Calm 10.00 Mostly Cloudy BKN065 60.8 55.4 83% 30.17 0.0
19 04:15 S 3 10.00 Mostly Cloudy BKN065 60.8 55.4 83% 30.16 0.0
19 03:55 SE 3 10.00 Partly Cloudy SCT065 60.8 55.4 83% 30.16 0.0
19 03:35 Calm 10.00 Partly Cloudy SCT065 60.8 55.4 83% 30.16 0.0
19 03:15 Calm 10.00 Partly Cloudy SCT065 60.8 55.4 83% 30.16 0.0
19 02:55 SE 3 10.00 Fair CLR 57.2 55.4 94% 30.16 0.0
19 02:35 Calm 10.00 Fair CLR 57.2 55.4 94% 30.16 0.0
19 02:15 Calm 10.00 Fair CLR 57.2 55.4 94% 30.16 0.0
19 01:55 Calm 10.00 Fair CLR 57.2 55.4 94% 30.16 0.0
19 01:35 Calm 10.00 Fair CLR 57.2 55.4 94% 30.16 0.0
19 01:15 Calm 10.00 Fair CLR 57.2 57.2 100% 30.16 0.0
19 00:55 Calm 10.00 Fair CLR 57.2 57.2 100% 30.16 0.0
19 00:35 Calm 10.00 Fair CLR 59 57.2 94% 30.16 0.0
19 00:15 Calm 10.00 Fair CLR 59 57.2 94% 30.16 0.0
18 23:55 Calm 10.00 Fair CLR 60.8 57.2 88% 30.16 0.0
18 23:35 Calm 10.00 Fair CLR 60.8 57.2 88% 30.16 0.0
18 23:15 Calm 10.00 Fair CLR 60.8 57.2 88% 30.16 0.0
Date Time (cdt) Wind (mph) Vis. (mi.) Weather Sky Cond. Air Dwpt Max. Min. Relative Humidity Wind Chill (°F) Heat Index (°F) altimeter (in) sea level (mb) 1 hr 3 hr 6 hr
6 hour
Temperature (ºF) Pressure Precipitation (in)